Simultaneous Nadir Overpasses (SNOs) Predictions

Prediction of SNOs between GOES-14 and AQUA Satellite Orbit:

Table of predicted SNOs for the next 14.0 days since TLE Epoch: 7/16/2022
Index Date Time (GOES-14) GOES-14 Lat,Lon AQUA Lat,Lon Distance(km) Time Diff (sec)
1 07/16/2022 08:29:58 -0.28,-104.48 -0.74,-102.46 230.02 80
2 07/16/2022 20:48:37 0.31,-104.76 -0.29,-107.64 326.61 80
3 07/18/2022 20:38:40 0.30,-104.76 0.35,-104.57 22.19 80
4 07/20/2022 20:26:03 0.30,-104.76 1.01,-101.50 371.39 80
5 07/21/2022 08:47:11 -0.33,-104.48 0.12,-106.62 242.49 80
6 07/23/2022 08:32:20 -0.33,-104.48 -0.55,-103.55 106.46 54
7 07/23/2022 20:53:12 0.35,-104.75 -0.52,-108.72 451.78 80
8 07/25/2022 08:19:16 -0.33,-104.48 -1.19,-100.47 455.24 80
9 07/25/2022 20:40:35 0.35,-104.75 0.18,-105.65 102.63 80
10 07/27/2022 20:30:37 0.36,-104.75 0.83,-102.58 246.50 80
11 07/28/2022 08:51:45 -0.38,-104.49 0.29,-107.70 365.14 80
